Weather in Storuman

Sweden     65°05′25″N   17°06′22″E
temp.,
°C
wind,
m/s
gust,
m/s
humid.,
%
clouds,
%
prec.,
mm/h
press.,
hPa
HPBL,
m
14 may, fri
fri1423:00+6nne2499100 0.2 1014188
02:00+5nne2797100 0.3 1014364
05:00+3nne3897100 0.0 1014415
08:00+3nne3795100 0.0 1015444
11:00+3ne3693100 0.0 1016458
14:00+4ne3588100 0.0 1015492
17:00+4ne4687100 0.0 1015522
20:00+3ne3691100 0.0 1015403
15 may, sat
sat1523:00+2nne2794100 0.0 1015390
02:00+1n2696100 0.0 1014323
05:00+1nne2696100 0.0 1013290
08:00+2nne2796100 0.0 1012307
11:00+3nne2795100 0.1 1011369
14:00+3nne2897100 0.9 1010477
17:00+3nne2797100 0.0 1010405
20:00+3nne2898100 0.3 1008367
16 may, sun
sun1623:00+3nne2999100 1.8 1008406
02:00+4nne2899100 2.6 1007421
05:00+3nne2799100 0.1 1006317
08:00+3nne1599100 0.1 1006238
11:00+5ne1298100 0.0 1007189
14:00+8ene1392100 0.0 1007378
17:00+8ene1394100 0.1 1006294
20:00+7ne1297100 0.1 100766
17 may, mon
mon1723:00+6ne1198100 0.0 100811
02:00+5ne119819 0.0 100810
05:00+5e119827 0.0 100911
08:00+9e248586 0.0 1008445
11:00+12e3471100 0.0 10071015
14:00+13e4870100 0.2 10061368
17:00+12e4974100 0.7 1004591
20:00+11e51387100 1.4 1002883
18 may, tue
tue1823:00+9e51398100 4.8 1000819
02:00+7s2692100 8.7 1001303
05:00+7s2595100 0.0 1001396
08:00+7ssw2387100 0.0 1001521
11:00+8s2281100 0.0 1001663
14:00+10ssw3475100 0.0 1000880
17:00+10ssw357394 0.0 1000838
20:00+10sse1177100 0.1 99919